www.pogodaiklimat.ru
ПОГОДА в Ньюнане
Время
и дата
07:35 22.04
07:55 22.04
08:15 22.04
08:35 22.04
08:55 22.04
09:15 22.04
09:35 22.04
09:55 22.04
10:15 22.04
10:35 22.04
10:55 22.04
11:15 22.04
11:35 22.04
11:55 22.04
12:15 22.04
12:35 22.04
12:55 22.04
13:15 22.04
13:35 22.04
13:55 22.04
14:15 22.04
14:35 22.04
14:55 22.04
15:15 22.04
15:35 22.04
15:55 22.04
16:15 22.04
16:35 22.04
16:55 22.04
17:15 22.04
17:35 22.04
17:55 22.04
18:15 22.04
18:35 22.04
18:55 22.04
19:15 22.04
19:35 22.04
19:55 22.04
20:15 22.04
20:35 22.04
20:55 22.04
21:15 22.04
21:35 22.04
21:55 22.04
22:15 22.04
22:35 22.04
22:55 22.04
23:15 22.04
Ветер
(напр.,м/с)
Видим. Явления Облачность Т
(С)
Тd
(С)
f
(%)
Тe
(С)
Тes
(С)
Комфортность P
(гПа)
Po
(гПа)
Тmin
(С)
Tmax
(С)
R
(мм)
R24
(мм)
S
(см)
СВ 1 16 км ясно +7.1 -2.4 51 +5 +6 988.5
СВ 1 16 км ясно +8.3 -3.4 43 +7 +8 988.5
С 1 16 км ясно +9.3 -4.2 38 +8 +11 988.8
СВ 2 16 км ясно +10.1 -6.4 31 +8 +10 988.8
С 2 16 км ясно +10.6 -7.7 27 +9 +11 989.1
СВ 1 16 км ясно +11.5 -7.6 25 +10 +17 989.1
СВ 2 16 км ясно +12.0 -7.2 25 +11 +16 989.1
СВ 1 16 км ясно +12.3 -7.9 24 +12 +20 989.1
СВ 2 16 км ясно +12.7 -9.5 20 +11 +20 989.1
СВ 1 16 км ясно +13.2 -9.5 20 +13 +25 опасность
простуды
989.1
В 1 16 км ясно +13.6 -9.3 19 +13 +23 988.8
СЗ 1
{2}
16 км ясно +13.9 -10.9 17 +13 +27 опасность
простуды
988.8
СВ 2 16 км ясно +14.6 -9.6 18 +14 +25 опасность
простуды
988.5
В 1 16 км ясно +14.3 -9.8 18 +14 +31 опасность
простуды
988.5
С 1 16 км ясно +14.7 -9.6 18 +15 +34 опасность
простуды
988.2
С 2 16 км ясно +15.0 -9.8 17 +14 +27 опасность
простуды
987.8
ЮЗ 1 16 км ясно +15.6 -8.3 18 +16 +35 опасность
простуды
987.5 +4.6 +15.7
штиль 0 16 км ясно +15.5 -9.7 17 +16 +42 опасность
простуды
987.5
СЗ 1 16 км ясно +16.1 -9.1 17 +16 +32 опасность
простуды
987.2
СВ 1 16 км ясно +16.5 -8.5 17 +16 +33 опасность
простуды
986.8
С 1 16 км ясно +17.0 -8.6 17 +17 +31 опасность
простуды
986.5
С 1 16 км ясно +17.3 -8.7 16 +18 +35 опасность
простуды
986.5
З 1
{3}
16 км ясно +17.9 -9.0 15 +18 +33 опасность
простуды
986.2
С 1 16 км ясно +17.7 -8.0 17 +18 +32 опасность
простуды
985.9
ЮЗ 1 16 км ясно +18.3 -8.5 15 +19 +33 опасность
простуды
985.5
СЗ 1 16 км ясно +18.3 -7.1 17 +18 +30 опасность
простуды
985.2
С 1 16 км ясно +18.5 -8.6 15 +19 +26 985.2
З 2 16 км ясно +18.4 -9.6 14 +18 +24 985.2
СЗ 1 16 км ясно +18.3 -8.6 15 +18 +26 984.9
СЗ 2 16 км ясно +18.4 -8.1 16 +18 +21 984.9
штиль 0 16 км ясно +17.8 -8.7 16 +18 +24 984.9
С 1 16 км ясно +18.0 -7.9 16 +19 +23 984.9
СЗ 1 16 км ясно +17.9 -8.2 16 +18 +19 984.6
СЗ 1 16 км ясно +17.5 -8.0 17 +18 +19 984.6
СЗ 1 16 км ясно +17.0 -6.8 19 +17 +19 984.6 +15.5 +18.9
штиль 0 16 км ясно +15.5 -3.9 26 +16 +16 984.9
штиль 0 16 км ясно +13.3 -1.1 37 +13 +13 984.9
штиль 0 16 км ясно +12.7 -0.7 40 +13 +13 985.2
штиль 0 16 км ясно +11.9 0.0 44 +12 +12 985.5
штиль 0 16 км ясно +11.7 +0.2 45 +12 +12 985.9
штиль 0 16 км ясно +11.1 0.0 46 +11 +11 985.9
штиль 0 16 км ясно +10.1 +1.0 53 +10 +10 986.2
штиль 0 16 км ясно +9.5 +1.0 55 +9 +9 985.9
штиль 0 16 км ясно +9.5 +0.8 55 +9 +9 985.9
штиль 0 16 км ясно +9.7 +1.0 55 +9 +9 986.2
штиль 0 16 км ясно +8.4 +1.6 62 +8 +8 986.5
штиль 0 16 км ясно +8.1 +1.7 64 +8 +8 986.5
штиль 0 16 км ясно +7.1 +1.9 69 +6 +6 986.2
Местоположение метеостанции Newnan Coweta County Airport: широта 33.3122 долгота -84.7703 высота над уровнем моря 296 м.
В архиве по умолчанию представлена погода в Ньюнане за последние 1-2 суток. Обновление информации о фактической погоде в базе происходит ежечасно! Архивные данные за месяц целиком и за предыдущие месяцы Вы можете получить, выбрав интересующий диапазон дат из раскрывающегося списка и нажав кнопку "Ввод!".
Внимание! Архив погоды МЕТАР в базе сайта по станциям, не включенным в климатический монитор, хранится не более 60 дней. Нет смысла пытаться выбрать более раннюю дату.
*Определитесь, кто Вы:
Внимание! Время в таблицах - местное (без учета летнего времени). Для получения всемирного времени необходимо вычесть поправку, которая равна -5 ч.
Смотрите также архив погоды в соседних городах и на ближайших метеорологических станциях:
Партнеры нашего сайта:      
Пояснения к столбцам:
  • Ветер - указаны скорость ветра в м/с - средняя за 10 мин, порывы в срок и между сроками (в фигурных скобках) и направление, откуда дует ветер: С - северный,
  • СВ - северо-восточный, В - восточный, ЮВ - юго-восточный, Ю - южный, ЮЗ - юго-западный, З - западный, СЗ - северо-западный.
  • Видимость - горизонтальная дальность видимости в метрах или километрах. При видимости от 1 до 10 км при отсутствии осадков обычно наблюдается дымка, при ухудшении видимости до 1 км и менее - туман. В сухую погоду видимость может ухудшаться дымом, пылью или мглою.
  • Явления - указаны атмосферные явления, наблюдавшиеся в срок или в последний час перед сроком; фигурными скобками обозначены явления, наблюдавшиеся между сроками (за 1-3 часа до срока); квадратными скобками обозначены град или гололедные отложения с указанием их диаметра в мм.
  • Облачность - указаны через наклонную черту общая и нижняя облачность в баллах и высота нижней границы облаков в метрах; квадратными скобками обозначены формы облаков: Ci - перистые, Cs - перисто-слоистые, Cc - перисто-кучевые, Ac - высококучевые, As - высокослоистые, Sc - слоисто-кучевые, Ns - слоисто-дождевые, Cu - кучевые, Cb - кучево-дождевые. Подробнее классификацию облаков см. в Атласе облаков (PDF).
  • T - Температура воздуха - температура, измеренная на высоте 2 м над землей.
  • Td - Температура точки росы - температура, при понижении до которой содержащийся в воздухе водяной пар достигнет насыщения.
  • f - Относительная влажность воздуха - влажноcть воздуха, измеренная на высоте 2 м над землей.
  • Te - Эффективная температура - температура, которую ощущает одетый по сезону человек в тени. Характеристика душности погоды. При расчете учитывается влияние влажности воздуха и скорости ветра на теплоощущения человека.
  • Tes - Эффективная температура на солнце - температура, которую ощущает человек, с поправкой на солнечный нагрев. Характеристика знойности погоды. Зависит от высоты солнца над горизонтом, облачности и скорости ветра. Ночью, в пасмурную погоду, а также при ветре 12 м/с и более поправка равна нулю.
  • P - Атмосферное давление - приведенное к уровню моря атмосферное давление.
  • Po - Атмосферное давление - измеренное на уровне метеостанции атмосферное давление.
  • Tmin - Минимальная температура - минимум температуры воздуха на высоте 2 м над землей.
  • Tmax - Максимальная температура - максимум температуры воздуха на высоте 2 м над землей.
  • R - Количество осадков - Количество выпавших осадков за период времени, мм. При наведении курсора мыши на число - период времени, за который выпало указанное количество осадков.
  • R24 - Количество осадков - Количество выпавших осадков за 24 часа, мм.
  • S - Снежный покров - Высота снежного покрова, см. При наведении курсора мыши на число - состояние снежного покрова и степень покрытия местности в баллах.